Year,Month,Day,Hour,Minute,Value (Times are PST for temperature in C)
2011,05,19,00,00,9.60
2011,05,19,00,01,9.60
2011,05,19,00,02,9.60
2011,05,19,00,03,9.60
2011,05,19,00,04,9.50
2011,05,19,00,05,9.50
2011,05,19,00,06,9.50
2011,05,19,00,07,9.40
2011,05,19,00,08,9.40
2011,05,19,00,09,9.40
2011,05,19,00,10,9.30
2011,05,19,00,11,9.30
2011,05,19,00,12,9.30
2011,05,19,00,13,9.20
2011,05,19,00,14,9.20
2011,05,19,00,15,9.20
2011,05,19,00,16,9.20
2011,05,19,00,17,9.10
2011,05,19,00,18,9.10
2011,05,19,00,19,9.10
2011,05,19,00,20,9.10
2011,05,19,00,21,9.00
2011,05,19,00,22,9.00
2011,05,19,00,23,9.00
2011,05,19,00,24,9.00
2011,05,19,00,25,9.00
2011,05,19,00,26,9.00
2011,05,19,00,27,8.90
2011,05,19,00,28,8.90
2011,05,19,00,29,8.90
2011,05,19,00,30,8.90
2011,05,19,00,31,8.90
2011,05,19,00,32,8.90
2011,05,19,00,33,8.80
2011,05,19,00,34,8.80
2011,05,19,00,35,8.80
2011,05,19,00,36,8.80
2011,05,19,00,37,8.70
2011,05,19,00,38,8.70
2011,05,19,00,39,8.70
2011,05,19,00,40,8.70
2011,05,19,00,41,8.70
2011,05,19,00,42,8.70
2011,05,19,00,43,8.70
2011,05,19,00,44,8.70
2011,05,19,00,45,8.70
2011,05,19,00,46,8.80
2011,05,19,00,47,8.80
2011,05,19,00,48,8.90
2011,05,19,00,49,8.90
2011,05,19,00,50,9.00
2011,05,19,00,51,9.10
2011,05,19,00,52,9.10
2011,05,19,00,53,9.20
2011,05,19,00,54,9.20
2011,05,19,00,55,9.20
2011,05,19,00,56,9.20
2011,05,19,00,57,9.20
2011,05,19,00,58,9.20
2011,05,19,00,59,9.20
2011,05,19,01,00,9.20
2011,05,19,01,01,9.20
2011,05,19,01,02,9.20
2011,05,19,01,03,9.10
2011,05,19,01,04,9.10
2011,05,19,01,05,9.10
2011,05,19,01,06,9.10
2011,05,19,01,07,9.00
2011,05,19,01,08,9.00
2011,05,19,01,09,9.00
2011,05,19,01,10,8.90
2011,05,19,01,11,8.90
2011,05,19,01,12,8.80
2011,05,19,01,13,8.80
2011,05,19,01,14,8.70
2011,05,19,01,15,8.70
2011,05,19,01,16,8.70
2011,05,19,01,17,8.70
2011,05,19,01,18,8.60
2011,05,19,01,19,8.60
2011,05,19,01,20,8.50
2011,05,19,01,21,8.50
2011,05,19,01,22,8.40
2011,05,19,01,23,8.40
2011,05,19,01,24,8.40
2011,05,19,01,25,8.30
2011,05,19,01,26,8.30
2011,05,19,01,27,8.30
2011,05,19,01,28,8.20
2011,05,19,01,29,8.20
2011,05,19,01,30,8.20
2011,05,19,01,31,8.20
2011,05,19,01,32,8.20
2011,05,19,01,33,8.10
2011,05,19,01,34,8.10
2011,05,19,01,35,8.10
2011,05,19,01,36,8.00
2011,05,19,01,37,8.00
2011,05,19,01,38,8.00
2011,05,19,01,39,8.00
2011,05,19,01,40,7.90
2011,05,19,01,41,7.90
2011,05,19,01,42,7.90
2011,05,19,01,43,7.90
2011,05,19,01,44,7.90
2011,05,19,01,45,7.90
2011,05,19,01,46,7.80
2011,05,19,01,47,7.80
2011,05,19,01,48,7.80
2011,05,19,01,49,7.80
2011,05,19,01,50,7.80
2011,05,19,01,51,7.80
2011,05,19,01,52,7.80
2011,05,19,01,53,7.80
2011,05,19,01,54,7.80
2011,05,19,01,55,7.80
2011,05,19,01,56,7.70
2011,05,19,01,57,7.70
2011,05,19,01,58,7.70
2011,05,19,01,59,7.70
2011,05,19,02,00,7.60
2011,05,19,02,01,7.60
2011,05,19,02,02,7.60
2011,05,19,02,03,7.60
2011,05,19,02,04,7.50
2011,05,19,02,05,7.50
2011,05,19,02,06,7.50
2011,05,19,02,07,7.40
2011,05,19,02,08,7.40
2011,05,19,02,09,7.40
2011,05,19,02,10,7.40
2011,05,19,02,11,7.30
2011,05,19,02,12,7.30
2011,05,19,02,13,7.30
2011,05,19,02,14,7.30
2011,05,19,02,15,7.40
2011,05,19,02,16,7.30
2011,05,19,02,17,7.30
2011,05,19,02,18,7.30
2011,05,19,02,19,7.30
2011,05,19,02,20,7.30
2011,05,19,02,21,7.30
2011,05,19,02,22,7.30
2011,05,19,02,23,7.30
2011,05,19,02,24,7.30
2011,05,19,02,25,7.30
2011,05,19,02,26,7.30
2011,05,19,02,27,7.30
2011,05,19,02,28,7.30
2011,05,19,02,29,7.30
2011,05,19,02,30,7.30
2011,05,19,02,31,7.30
2011,05,19,02,32,7.20
2011,05,19,02,33,7.20
2011,05,19,02,34,7.10
2011,05,19,02,35,7.10
2011,05,19,02,36,7.10
2011,05,19,02,37,7.10
2011,05,19,02,38,7.10
2011,05,19,02,39,7.10
2011,05,19,02,40,7.10
2011,05,19,02,41,7.10
2011,05,19,02,42,7.10
2011,05,19,02,43,7.10
2011,05,19,02,44,7.10
2011,05,19,02,45,7.10
2011,05,19,02,46,7.10
2011,05,19,02,47,7.10
2011,05,19,02,48,7.10
2011,05,19,02,49,7.10
2011,05,19,02,50,7.10
2011,05,19,02,51,7.10
2011,05,19,02,52,7.10
2011,05,19,02,53,7.10
2011,05,19,02,54,7.10
2011,05,19,02,55,7.10
2011,05,19,02,56,7.10
2011,05,19,02,57,7.20
2011,05,19,02,58,7.20
2011,05,19,02,59,7.20
2011,05,19,03,00,7.20
2011,05,19,03,01,7.20
2011,05,19,03,02,7.10
2011,05,19,03,03,7.10
2011,05,19,03,04,7.10
2011,05,19,03,05,7.10
2011,05,19,03,06,7.10
2011,05,19,03,07,7.10
2011,05,19,03,08,7.10
2011,05,19,03,09,7.10
2011,05,19,03,10,7.10
2011,05,19,03,11,7.10
2011,05,19,03,12,7.10
2011,05,19,03,13,7.10
2011,05,19,03,14,7.10
2011,05,19,03,15,7.20
2011,05,19,03,16,7.20
2011,05,19,03,17,7.20
2011,05,19,03,18,7.20
2011,05,19,03,19,7.20
2011,05,19,03,20,7.30
2011,05,19,03,21,7.30
2011,05,19,03,22,7.30
2011,05,19,03,23,7.30
2011,05,19,03,24,7.30
2011,05,19,03,25,7.30
2011,05,19,03,26,7.30
2011,05,19,03,27,7.30
2011,05,19,03,28,7.30
2011,05,19,03,29,7.30
2011,05,19,03,30,7.30
2011,05,19,03,31,7.30
2011,05,19,03,32,7.30
2011,05,19,03,33,7.20
2011,05,19,03,34,7.20
2011,05,19,03,35,7.10
2011,05,19,03,36,7.10
2011,05,19,03,37,7.00
2011,05,19,03,38,7.00
2011,05,19,03,39,7.00
2011,05,19,03,40,6.90
2011,05,19,03,41,6.90
2011,05,19,03,42,6.80
2011,05,19,03,43,6.80
2011,05,19,03,44,6.80
2011,05,19,03,45,6.70
2011,05,19,03,46,6.70
2011,05,19,03,47,6.60
2011,05,19,03,48,6.60
2011,05,19,03,49,6.60
2011,05,19,03,50,6.60
2011,05,19,03,51,6.60
2011,05,19,03,52,6.60
2011,05,19,03,53,6.60
2011,05,19,03,54,6.60
2011,05,19,03,55,6.60
2011,05,19,03,56,6.60
2011,05,19,03,57,6.60
2011,05,19,03,58,6.60
2011,05,19,03,59,6.60
2011,05,19,04,00,6.60
2011,05,19,04,01,6.60
2011,05,19,04,02,6.60
2011,05,19,04,03,6.60
2011,05,19,04,04,6.60
2011,05,19,04,05,6.60
2011,05,19,04,06,6.60
2011,05,19,04,07,6.50
2011,05,19,04,08,6.40
2011,05,19,04,09,6.40
2011,05,19,04,10,6.40
2011,05,19,04,11,6.40
2011,05,19,04,12,6.40
2011,05,19,04,13,6.40
2011,05,19,04,14,6.40
2011,05,19,04,15,6.40
2011,05,19,04,16,6.40
2011,05,19,04,17,6.30
2011,05,19,04,18,6.30
2011,05,19,04,19,6.30
2011,05,19,04,20,6.30
2011,05,19,04,21,6.30
2011,05,19,04,22,6.30
2011,05,19,04,23,6.30
2011,05,19,04,24,6.30
2011,05,19,04,25,6.30
2011,05,19,04,26,6.30
2011,05,19,04,27,6.30
2011,05,19,04,28,6.20
2011,05,19,04,29,6.20
2011,05,19,04,30,6.20
2011,05,19,04,31,6.20
2011,05,19,04,32,6.20
2011,05,19,04,33,6.20
2011,05,19,04,34,6.20
2011,05,19,04,35,6.20
2011,05,19,04,36,6.20
2011,05,19,04,37,6.20
2011,05,19,04,38,6.20
2011,05,19,04,39,6.20
2011,05,19,04,40,6.20
2011,05,19,04,41,6.30
2011,05,19,04,42,6.30
2011,05,19,04,43,6.30
2011,05,19,04,44,6.30
2011,05,19,04,45,6.40
2011,05,19,04,46,6.40
2011,05,19,04,47,6.40
2011,05,19,04,48,6.40
2011,05,19,04,49,6.40
2011,05,19,04,50,6.30
2011,05,19,04,51,6.30
2011,05,19,04,52,6.30
2011,05,19,04,53,6.30
2011,05,19,04,54,6.30
2011,05,19,04,55,6.30
2011,05,19,04,56,6.30
2011,05,19,04,57,6.20
2011,05,19,04,58,6.20
2011,05,19,04,59,6.20
2011,05,19,05,00,6.20
2011,05,19,05,01,6.20
2011,05,19,05,02,6.10
2011,05,19,05,03,6.10
2011,05,19,05,04,6.10
2011,05,19,05,05,6.10
2011,05,19,05,06,6.10
2011,05,19,05,07,6.00
2011,05,19,05,08,6.00
2011,05,19,05,09,6.00
2011,05,19,05,10,6.00
2011,05,19,05,11,6.00
2011,05,19,05,12,6.00
2011,05,19,05,13,6.00
2011,05,19,05,14,6.00
2011,05,19,05,15,6.00
2011,05,19,05,16,6.00
2011,05,19,05,17,6.00
2011,05,19,05,18,6.00
2011,05,19,05,19,6.00
2011,05,19,05,20,6.00
2011,05,19,05,21,6.00
2011,05,19,05,22,6.00
2011,05,19,05,23,6.00
2011,05,19,05,24,6.00
2011,05,19,05,25,6.00
2011,05,19,05,26,6.00
2011,05,19,05,27,6.00
2011,05,19,05,28,6.00
2011,05,19,05,29,6.00
2011,05,19,05,30,6.00
2011,05,19,05,31,5.90
2011,05,19,05,32,5.90
2011,05,19,05,33,5.90
2011,05,19,05,34,5.90
2011,05,19,05,35,5.90
2011,05,19,05,36,5.90
2011,05,19,05,37,5.90
2011,05,19,05,38,5.90
2011,05,19,05,39,5.80
2011,05,19,05,40,5.80
2011,05,19,05,41,5.80
2011,05,19,05,42,5.80
2011,05,19,05,43,5.80
2011,05,19,05,44,5.80
2011,05,19,05,45,5.90
2011,05,19,05,46,5.80
2011,05,19,05,47,5.80
2011,05,19,05,48,5.90
2011,05,19,05,49,5.90
2011,05,19,05,50,5.90
2011,05,19,05,51,6.00
2011,05,19,05,52,6.00
2011,05,19,05,53,6.00
2011,05,19,05,54,6.00
2011,05,19,05,55,6.00
2011,05,19,05,56,6.00
2011,05,19,05,57,6.00
2011,05,19,05,58,6.00
2011,05,19,05,59,6.00
2011,05,19,06,00,6.00
2011,05,19,06,01,6.00
2011,05,19,06,02,6.00
2011,05,19,06,03,6.00
2011,05,19,06,04,6.00
2011,05,19,06,05,6.00
2011,05,19,06,06,6.00
2011,05,19,06,07,6.00
2011,05,19,06,08,6.00
2011,05,19,06,09,6.00
2011,05,19,06,10,6.10
2011,05,19,06,11,6.10
2011,05,19,06,12,6.10
2011,05,19,06,13,6.10
2011,05,19,06,14,6.20
2011,05,19,06,15,6.20
2011,05,19,06,16,6.20
2011,05,19,06,17,6.20
2011,05,19,06,18,6.20
2011,05,19,06,19,6.20
2011,05,19,06,20,6.30
2011,05,19,06,21,6.30
2011,05,19,06,22,6.30
2011,05,19,06,23,6.40
2011,05,19,06,24,6.40
2011,05,19,06,25,6.40
2011,05,19,06,26,6.40
2011,05,19,06,27,6.40
2011,05,19,06,28,6.50
2011,05,19,06,29,6.60
2011,05,19,06,30,6.60
2011,05,19,06,31,6.60
2011,05,19,06,32,6.70
2011,05,19,06,33,6.80
2011,05,19,06,34,6.80
2011,05,19,06,35,6.80
2011,05,19,06,36,6.90
2011,05,19,06,37,6.90
2011,05,19,06,38,6.90
2011,05,19,06,39,6.90
2011,05,19,06,40,6.90
2011,05,19,06,41,7.00
2011,05,19,06,42,7.00
2011,05,19,06,43,7.10
2011,05,19,06,44,7.20
2011,05,19,06,45,7.30
2011,05,19,06,46,7.30
2011,05,19,06,47,7.40
2011,05,19,06,48,7.50
2011,05,19,06,49,7.50
2011,05,19,06,50,7.60
2011,05,19,06,51,7.70
2011,05,19,06,52,7.70
2011,05,19,06,53,7.80
2011,05,19,06,54,7.90
2011,05,19,06,55,7.90
2011,05,19,06,56,8.00
2011,05,19,06,57,8.10
2011,05,19,06,58,8.20
2011,05,19,06,59,8.20
2011,05,19,07,00,8.30
2011,05,19,07,01,8.30
2011,05,19,07,02,8.40
2011,05,19,07,03,8.50
2011,05,19,07,04,8.50
2011,05,19,07,05,8.60
2011,05,19,07,06,8.70
2011,05,19,07,07,8.70
2011,05,19,07,08,8.80
2011,05,19,07,09,8.90
2011,05,19,07,10,9.00
2011,05,19,07,11,9.10
2011,05,19,07,12,9.20
2011,05,19,07,13,9.20
2011,05,19,07,14,9.30
2011,05,19,07,15,9.30
2011,05,19,07,16,9.40
2011,05,19,07,17,9.40
2011,05,19,07,18,9.50
2011,05,19,07,19,9.60
2011,05,19,07,20,9.70
2011,05,19,07,21,9.70
2011,05,19,07,22,9.90
2011,05,19,07,23,9.90
2011,05,19,07,24,10.10
2011,05,19,07,25,10.10
2011,05,19,07,26,10.10
2011,05,19,07,27,10.20
2011,05,19,07,28,10.20
2011,05,19,07,29,10.30
2011,05,19,07,30,10.30
2011,05,19,07,31,10.20
2011,05,19,07,32,10.30
2011,05,19,07,33,10.30
2011,05,19,07,34,10.30
2011,05,19,07,35,10.30
2011,05,19,07,36,10.30
2011,05,19,07,37,10.20
2011,05,19,07,38,10.20
2011,05,19,07,39,10.10
2011,05,19,07,40,10.10
2011,05,19,07,41,10.00
2011,05,19,07,42,9.90
2011,05,19,07,43,9.90
2011,05,19,07,44,9.90
2011,05,19,07,45,10.00
2011,05,19,07,46,10.10
2011,05,19,07,47,10.10
2011,05,19,07,48,10.10
2011,05,19,07,49,10.20
2011,05,19,07,50,10.30
2011,05,19,07,51,10.40
2011,05,19,07,52,10.60
2011,05,19,07,53,10.70
2011,05,19,07,54,10.80
2011,05,19,07,55,10.90
2011,05,19,07,56,11.00
2011,05,19,07,57,11.10
2011,05,19,07,58,11.20
2011,05,19,07,59,11.30
2011,05,19,08,00,11.30
2011,05,19,08,01,11.40
2011,05,19,08,02,11.50
2011,05,19,08,03,11.60
2011,05,19,08,04,11.70
2011,05,19,08,05,11.80
2011,05,19,08,06,11.80
2011,05,19,08,07,11.90
2011,05,19,08,08,12.00
2011,05,19,08,09,12.00
2011,05,19,08,10,12.00
2011,05,19,08,11,12.00
2011,05,19,08,12,12.00
2011,05,19,08,13,12.00
2011,05,19,08,14,12.10
2011,05,19,08,15,12.10
2011,05,19,08,16,12.10
2011,05,19,08,17,12.20
2011,05,19,08,18,12.20
2011,05,19,08,19,12.20
2011,05,19,08,20,12.20
2011,05,19,08,21,12.20
2011,05,19,08,22,12.20
2011,05,19,08,23,12.30
2011,05,19,08,24,12.30
2011,05,19,08,25,12.30
2011,05,19,08,26,12.30
2011,05,19,08,27,12.40
2011,05,19,08,28,12.40
2011,05,19,08,29,12.40
2011,05,19,08,30,12.50
2011,05,19,08,31,12.60
2011,05,19,08,32,12.70
2011,05,19,08,33,12.70
2011,05,19,08,34,12.80
2011,05,19,08,35,12.80
2011,05,19,08,36,12.90
2011,05,19,08,37,13.00
2011,05,19,08,38,13.00
2011,05,19,08,39,13.10
2011,05,19,08,40,13.20
2011,05,19,08,41,13.30
2011,05,19,08,42,13.40
2011,05,19,08,43,13.50
2011,05,19,08,44,13.60
2011,05,19,08,45,13.70
2011,05,19,08,46,13.70
2011,05,19,08,47,13.70
2011,05,19,08,48,13.70
2011,05,19,08,49,13.70
2011,05,19,08,50,13.70
2011,05,19,08,51,13.80
2011,05,19,08,52,13.90
2011,05,19,08,53,13.90
2011,05,19,08,54,13.90
2011,05,19,08,55,13.90
2011,05,19,08,56,13.90
2011,05,19,08,57,14.00
2011,05,19,08,58,14.00
2011,05,19,08,59,14.10
2011,05,19,09,00,14.20
2011,05,19,09,01,14.20
2011,05,19,09,02,14.20
2011,05,19,09,03,14.20
2011,05,19,09,04,14.20
2011,05,19,09,05,14.10
2011,05,19,09,06,14.00
2011,05,19,09,07,13.90
2011,05,19,09,08,13.90
2011,05,19,09,09,13.90
2011,05,19,09,10,13.90
2011,05,19,09,11,13.90
2011,05,19,09,12,13.80
2011,05,19,09,13,13.80
2011,05,19,09,14,13.90
2011,05,19,09,15,13.90
2011,05,19,09,16,13.90
2011,05,19,09,17,14.00
2011,05,19,09,18,14.00
2011,05,19,09,19,14.10
2011,05,19,09,20,14.00
2011,05,19,09,21,14.00
2011,05,19,09,22,14.10
2011,05,19,09,23,14.10
2011,05,19,09,24,14.10
2011,05,19,09,25,14.00
2011,05,19,09,26,14.00
2011,05,19,09,27,13.90
2011,05,19,09,28,13.80
2011,05,19,09,29,13.80
2011,05,19,09,30,13.70
2011,05,19,09,31,13.70
2011,05,19,09,32,13.70
2011,05,19,09,33,13.80
2011,05,19,09,34,13.90
2011,05,19,09,35,13.90
2011,05,19,09,36,14.10
2011,05,19,09,37,14.20
2011,05,19,09,38,14.30
2011,05,19,09,39,14.40
2011,05,19,09,40,14.40
2011,05,19,09,41,14.40
2011,05,19,09,42,14.40
2011,05,19,09,43,14.30
2011,05,19,09,44,14.30
2011,05,19,09,45,14.20
2011,05,19,09,46,14.20
2011,05,19,09,47,14.20
2011,05,19,09,48,14.30
2011,05,19,09,49,14.30
2011,05,19,09,50,14.40
2011,05,19,09,51,14.50
2011,05,19,09,52,14.50
2011,05,19,09,53,14.60
2011,05,19,09,54,14.60
2011,05,19,09,55,14.70
2011,05,19,09,56,14.80
2011,05,19,09,57,14.80
2011,05,19,09,58,14.90
2011,05,19,09,59,15.00
2011,05,19,10,00,15.00
2011,05,19,10,01,15.00
2011,05,19,10,02,15.10
2011,05,19,10,03,15.10
2011,05,19,10,04,15.00
2011,05,19,10,05,15.00
2011,05,19,10,06,15.00
2011,05,19,10,07,14.90
2011,05,19,10,08,14.70
2011,05,19,10,09,14.60
2011,05,19,10,10,14.60
2011,05,19,10,11,14.50
2011,05,19,10,12,14.60
2011,05,19,10,13,14.70
2011,05,19,10,14,14.80
2011,05,19,10,15,14.90
2011,05,19,10,16,15.00
2011,05,19,10,17,15.20
2011,05,19,10,18,15.30
2011,05,19,10,19,15.40
2011,05,19,10,20,15.60
2011,05,19,10,21,15.70
2011,05,19,10,22,15.90
2011,05,19,10,23,15.90
2011,05,19,10,24,15.80
2011,05,19,10,25,15.70
2011,05,19,10,26,15.70
2011,05,19,10,27,15.80
2011,05,19,10,28,15.90
2011,05,19,10,29,16.10
2011,05,19,10,30,16.20
2011,05,19,10,31,16.20
2011,05,19,10,32,16.20
2011,05,19,10,33,15.90
2011,05,19,10,34,15.70
2011,05,19,10,35,15.50
2011,05,19,10,36,15.30
2011,05,19,10,37,15.20
2011,05,19,10,38,15.10
2011,05,19,10,39,15.00
2011,05,19,10,40,14.80
2011,05,19,10,41,14.80
2011,05,19,10,42,14.70
2011,05,19,10,43,14.70
2011,05,19,10,44,14.60
2011,05,19,10,45,14.70
2011,05,19,10,46,14.90
2011,05,19,10,47,15.10
2011,05,19,10,48,15.10
2011,05,19,10,49,15.10
2011,05,19,10,50,15.20
2011,05,19,10,51,15.40
2011,05,19,10,52,15.60
2011,05,19,10,53,15.70
2011,05,19,10,54,15.70
2011,05,19,10,55,15.80
2011,05,19,10,56,15.80
2011,05,19,10,57,15.70
2011,05,19,10,58,15.70
2011,05,19,10,59,15.80
2011,05,19,11,00,15.70
2011,05,19,11,01,15.80
2011,05,19,11,02,15.80
2011,05,19,11,03,15.90
2011,05,19,11,04,16.00
2011,05,19,11,05,16.10
2011,05,19,11,06,16.10
2011,05,19,11,07,15.90
2011,05,19,11,08,15.80
2011,05,19,11,09,15.80
2011,05,19,11,10,15.80
2011,05,19,11,11,15.80
2011,05,19,11,12,15.90
2011,05,19,11,13,16.10
2011,05,19,11,14,16.20
2011,05,19,11,15,16.30
2011,05,19,11,16,16.30
2011,05,19,11,17,16.50
2011,05,19,11,18,16.60
2011,05,19,11,19,16.70
2011,05,19,11,20,16.70
2011,05,19,11,21,16.80
2011,05,19,11,22,16.90
2011,05,19,11,23,16.90
2011,05,19,11,24,16.80
2011,05,19,11,25,16.60
2011,05,19,11,26,16.40
2011,05,19,11,27,16.40
2011,05,19,11,28,16.30
2011,05,19,11,29,16.30
2011,05,19,11,30,16.30
2011,05,19,11,31,16.40
2011,05,19,11,32,16.60
2011,05,19,11,33,16.60
2011,05,19,11,34,16.60
2011,05,19,11,35,16.70
2011,05,19,11,36,16.80
2011,05,19,11,37,16.90
2011,05,19,11,38,17.00
2011,05,19,11,39,16.90
2011,05,19,11,40,16.60
2011,05,19,11,41,16.30
2011,05,19,11,42,16.10
2011,05,19,11,43,16.00
2011,05,19,11,44,16.10
2011,05,19,11,45,16.10
2011,05,19,11,46,16.20
2011,05,19,11,47,16.10
2011,05,19,11,48,16.10
2011,05,19,11,49,16.10
2011,05,19,11,50,16.10
2011,05,19,11,51,16.20
2011,05,19,11,52,16.10
2011,05,19,11,53,16.00
2011,05,19,11,54,15.90
2011,05,19,11,55,15.90
2011,05,19,11,56,16.00
2011,05,19,11,57,16.10
2011,05,19,11,58,16.20
2011,05,19,11,59,16.20
2011,05,19,12,00,16.20
2011,05,19,12,01,16.20
2011,05,19,12,02,16.10
2011,05,19,12,03,16.00
2011,05,19,12,04,15.90
2011,05,19,12,05,15.80
2011,05,19,12,06,15.80
2011,05,19,12,07,15.80
2011,05,19,12,08,15.80
2011,05,19,12,09,15.80
2011,05,19,12,10,15.80
2011,05,19,12,11,15.70
2011,05,19,12,12,15.60
2011,05,19,12,13,15.50
2011,05,19,12,14,15.40
2011,05,19,12,15,15.10
2011,05,19,12,16,15.20
2011,05,19,12,17,15.30
2011,05,19,12,18,15.40
2011,05,19,12,19,15.50
2011,05,19,12,20,15.60
2011,05,19,12,21,15.50
2011,05,19,12,22,15.30
2011,05,19,12,23,15.20
2011,05,19,12,24,15.00
2011,05,19,12,25,14.80
2011,05,19,12,26,14.80
2011,05,19,12,27,14.70
2011,05,19,12,28,14.70
2011,05,19,12,29,14.60
2011,05,19,12,30,14.60
2011,05,19,12,31,14.80
2011,05,19,12,32,14.90
2011,05,19,12,33,14.70
2011,05,19,12,34,14.60
2011,05,19,12,35,14.60
2011,05,19,12,36,14.50
2011,05,19,12,37,14.50
2011,05,19,12,38,14.40
2011,05,19,12,39,14.20
2011,05,19,12,40,14.20
2011,05,19,12,41,14.10
2011,05,19,12,42,14.10
2011,05,19,12,43,14.20
2011,05,19,12,44,14.50
2011,05,19,12,45,14.50
2011,05,19,12,46,14.60
2011,05,19,12,47,14.60
2011,05,19,12,48,14.80
2011,05,19,12,49,15.00
2011,05,19,12,50,15.10
2011,05,19,12,51,15.30
2011,05,19,12,52,15.50
2011,05,19,12,53,15.60
2011,05,19,12,54,15.60
2011,05,19,12,55,15.70
2011,05,19,12,56,15.80
2011,05,19,12,57,15.80
2011,05,19,12,58,15.80
2011,05,19,12,59,15.70
2011,05,19,13,00,15.50
2011,05,19,13,01,15.30
2011,05,19,13,02,15.20
2011,05,19,13,03,15.10
2011,05,19,13,04,15.20
2011,05,19,13,05,15.30
2011,05,19,13,06,15.40
2011,05,19,13,07,15.60
2011,05,19,13,08,15.70
2011,05,19,13,09,15.70
2011,05,19,13,10,15.80
2011,05,19,13,11,15.80
2011,05,19,13,12,15.80
2011,05,19,13,13,15.80
2011,05,19,13,14,15.80
2011,05,19,13,15,15.70
2011,05,19,13,16,15.50
2011,05,19,13,17,15.40
2011,05,19,13,18,15.30
2011,05,19,13,19,15.40
2011,05,19,13,20,15.60
2011,05,19,13,21,15.80
2011,05,19,13,22,16.00
2011,05,19,13,23,16.20
2011,05,19,13,24,16.30
2011,05,19,13,25,16.40
2011,05,19,13,26,16.30
2011,05,19,13,27,16.20
2011,05,19,13,28,16.10
2011,05,19,13,29,16.00
2011,05,19,13,30,15.80
2011,05,19,13,31,15.70
2011,05,19,13,32,15.50
2011,05,19,13,33,15.40
2011,05,19,13,34,15.50
2011,05,19,13,35,15.50
2011,05,19,13,36,15.60
2011,05,19,13,37,15.60
2011,05,19,13,38,15.70
2011,05,19,13,39,15.50
2011,05,19,13,40,15.50
2011,05,19,13,41,15.60
2011,05,19,13,42,15.80
2011,05,19,13,43,15.80
2011,05,19,13,44,15.60
2011,05,19,13,45,15.50
2011,05,19,13,46,15.40
2011,05,19,13,47,15.30
2011,05,19,13,48,15.40
2011,05,19,13,49,15.60
2011,05,19,13,50,15.90
2011,05,19,13,51,16.00
2011,05,19,13,52,16.10
2011,05,19,13,53,16.00
2011,05,19,13,54,16.10
2011,05,19,13,55,16.20
2011,05,19,13,56,16.20
2011,05,19,13,57,16.10
2011,05,19,13,58,16.00
2011,05,19,13,59,15.80
2011,05,19,14,00,15.80
2011,05,19,14,01,15.80
2011,05,19,14,02,15.60
2011,05,19,14,03,15.60
2011,05,19,14,04,15.60
2011,05,19,14,05,15.50
2011,05,19,14,06,15.40
2011,05,19,14,07,15.30
2011,05,19,14,08,15.30
2011,05,19,14,09,15.30
2011,05,19,14,10,15.30
2011,05,19,14,11,15.30
2011,05,19,14,12,15.30
2011,05,19,14,13,15.30
2011,05,19,14,14,15.40
2011,05,19,14,15,15.50
2011,05,19,14,16,15.60
2011,05,19,14,17,15.50
2011,05,19,14,18,15.50
2011,05,19,14,19,15.40
2011,05,19,14,20,15.30
2011,05,19,14,21,15.30
2011,05,19,14,22,15.30
2011,05,19,14,23,15.30
2011,05,19,14,24,15.40
2011,05,19,14,25,15.40
2011,05,19,14,26,15.30
2011,05,19,14,27,15.30
2011,05,19,14,28,15.30
2011,05,19,14,29,15.30
2011,05,19,14,30,15.40
2011,05,19,14,31,15.50
2011,05,19,14,32,15.60
2011,05,19,14,33,15.60
2011,05,19,14,34,15.80
2011,05,19,14,35,16.10
2011,05,19,14,36,16.20
2011,05,19,14,37,16.20
2011,05,19,14,38,16.00
2011,05,19,14,39,15.90
2011,05,19,14,40,15.80
2011,05,19,14,41,15.80
2011,05,19,14,42,15.80
2011,05,19,14,43,15.80
2011,05,19,14,44,15.70
2011,05,19,14,45,15.70
2011,05,19,14,46,15.70
2011,05,19,14,47,15.60
2011,05,19,14,48,15.50
2011,05,19,14,49,15.40
2011,05,19,14,50,15.30
2011,05,19,14,51,15.30
2011,05,19,14,52,15.30
2011,05,19,14,53,15.30
2011,05,19,14,54,15.50
2011,05,19,14,55,15.60
2011,05,19,14,56,15.60
2011,05,19,14,57,15.60
2011,05,19,14,58,15.50
2011,05,19,14,59,15.60
2011,05,19,15,00,15.70
2011,05,19,15,01,15.60
2011,05,19,15,02,15.50
2011,05,19,15,03,15.50
2011,05,19,15,04,15.50
2011,05,19,15,05,15.40
2011,05,19,15,06,15.50
2011,05,19,15,07,15.60
2011,05,19,15,08,15.60
2011,05,19,15,09,15.50
2011,05,19,15,10,15.30
2011,05,19,15,11,15.30
2011,05,19,15,12,15.40
2011,05,19,15,13,15.50
2011,05,19,15,14,15.60
2011,05,19,15,15,15.60
2011,05,19,15,16,15.70
2011,05,19,15,17,15.70
2011,05,19,15,18,15.70
2011,05,19,15,19,15.70
2011,05,19,15,20,15.80
2011,05,19,15,21,15.80
2011,05,19,15,22,15.80
2011,05,19,15,23,15.80
2011,05,19,15,24,15.80
2011,05,19,15,25,15.70
2011,05,19,15,26,15.70
2011,05,19,15,27,15.60
2011,05,19,15,28,15.60
2011,05,19,15,29,15.50
2011,05,19,15,30,15.50
2011,05,19,15,31,15.30
2011,05,19,15,32,15.30
2011,05,19,15,33,15.20
2011,05,19,15,34,15.30
2011,05,19,15,35,15.30
2011,05,19,15,36,15.40
2011,05,19,15,37,15.60
2011,05,19,15,38,15.70
2011,05,19,15,39,15.80
2011,05,19,15,40,15.80
2011,05,19,15,41,15.60
2011,05,19,15,42,15.60
2011,05,19,15,43,15.60
2011,05,19,15,44,15.70
2011,05,19,15,45,15.70
2011,05,19,15,46,15.60
2011,05,19,15,47,15.50
2011,05,19,15,48,15.50
2011,05,19,15,49,15.50
2011,05,19,15,50,15.50
2011,05,19,15,51,15.50
2011,05,19,15,52,15.60
2011,05,19,15,53,15.70
2011,05,19,15,54,15.70
2011,05,19,15,55,15.70
2011,05,19,15,56,15.70
2011,05,19,15,57,15.80
2011,05,19,15,58,15.80
2011,05,19,15,59,15.80
2011,05,19,16,00,16.00
2011,05,19,16,01,16.10
2011,05,19,16,02,16.10
2011,05,19,16,03,16.20
2011,05,19,16,04,16.20
2011,05,19,16,05,16.10
2011,05,19,16,06,16.20
2011,05,19,16,07,16.20
2011,05,19,16,08,16.20
2011,05,19,16,09,16.10
2011,05,19,16,10,16.10
2011,05,19,16,11,16.10
2011,05,19,16,12,16.20
2011,05,19,16,13,16.20
2011,05,19,16,14,16.20
2011,05,19,16,15,16.20
2011,05,19,16,16,16.40
2011,05,19,16,17,16.40
2011,05,19,16,18,16.40
2011,05,19,16,19,16.50
2011,05,19,16,20,16.60
2011,05,19,16,21,16.70
2011,05,19,16,22,16.60
2011,05,19,16,23,16.60
2011,05,19,16,24,16.60
2011,05,19,16,25,16.70
2011,05,19,16,26,16.80
2011,05,19,16,27,16.90
2011,05,19,16,28,16.90
2011,05,19,16,29,17.00
2011,05,19,16,30,17.00
2011,05,19,16,31,17.00
2011,05,19,16,32,17.00
2011,05,19,16,33,16.90
2011,05,19,16,34,16.90
2011,05,19,16,35,16.90
2011,05,19,16,36,16.90
2011,05,19,16,37,17.00
2011,05,19,16,38,17.20
2011,05,19,16,39,17.30
2011,05,19,16,40,17.30
2011,05,19,16,41,17.30
2011,05,19,16,42,17.20
2011,05,19,16,43,17.20
2011,05,19,16,44,17.30
2011,05,19,16,45,17.10
2011,05,19,16,46,17.00
2011,05,19,16,47,16.90
2011,05,19,16,48,16.90
2011,05,19,16,49,16.80
2011,05,19,16,50,16.70
2011,05,19,16,51,16.70
2011,05,19,16,52,16.80
2011,05,19,16,53,16.90
2011,05,19,16,54,16.90
2011,05,19,16,55,16.90
2011,05,19,16,56,16.90
2011,05,19,16,57,17.00
2011,05,19,16,58,17.10
2011,05,19,16,59,17.00
2011,05,19,17,00,17.00
2011,05,19,17,01,16.90
2011,05,19,17,02,16.90
2011,05,19,17,03,16.80
2011,05,19,17,04,16.70
2011,05,19,17,05,16.70
2011,05,19,17,06,16.90
2011,05,19,17,07,17.00
2011,05,19,17,08,17.00
2011,05,19,17,09,17.00
2011,05,19,17,10,16.90
2011,05,19,17,11,16.80
2011,05,19,17,12,16.80
2011,05,19,17,13,16.90
2011,05,19,17,14,16.90
2011,05,19,17,15,17.00
2011,05,19,17,16,17.00
2011,05,19,17,17,17.00
2011,05,19,17,18,17.00
2011,05,19,17,19,16.90
2011,05,19,17,20,16.90
2011,05,19,17,21,17.00
2011,05,19,17,22,17.00
2011,05,19,17,23,17.00
2011,05,19,17,24,17.00
2011,05,19,17,25,17.10
2011,05,19,17,26,17.10
2011,05,19,17,27,17.00
2011,05,19,17,28,17.00
2011,05,19,17,29,17.00
2011,05,19,17,30,17.00
2011,05,19,17,31,16.90
2011,05,19,17,32,17.00
2011,05,19,17,33,16.90
2011,05,19,17,34,16.90
2011,05,19,17,35,17.00
2011,05,19,17,36,17.00
2011,05,19,17,37,17.10
2011,05,19,17,38,17.10